TimeCST,TemperatureF,Dew PointF,Humidity,Sea Level PressureIn,VisibilityMPH,Wind Direction,Wind SpeedMPH,Gust SpeedMPH,PrecipitationIn,Events,Conditions,WindDirDegrees,DateUTC
12:53 AM,50.0,48.9,96,29.76,6.0,SSW,10.4,-,N/A,,Overcast,200,2013-01-11 06:53:00
1:53 AM,50.0,48.9,96,29.76,6.0,SSW,11.5,18.4,N/A,,Overcast,210,2013-01-11 07:53:00
2:23 AM,50.0,48.2,94,29.74,6.0,SSW,5.8,-,N/A,,Overcast,200,2013-01-11 08:23:00
2:53 AM,50.0,48.0,93,29.75,7.0,SSW,10.4,-,N/A,,Overcast,200,2013-01-11 08:53:00
3:53 AM,50.0,48.0,93,29.74,5.0,SSW,10.4,-,N/A,,Overcast,200,2013-01-11 09:53:00
4:21 AM,50.0,48.2,94,29.73,7.0,SSW,8.1,-,N/A,,Overcast,200,2013-01-11 10:21:00
4:28 AM,50.0,48.2,94,29.72,8.0,South,10.4,-,N/A,,Overcast,190,2013-01-11 10:28:00
4:53 AM,50.0,48.0,93,29.73,6.0,South,12.7,17.3,N/A,,Overcast,190,2013-01-11 10:53:00
5:53 AM,50.0,46.9,89,29.73,6.0,South,11.5,-,N/A,,Overcast,190,2013-01-11 11:53:00
6:22 AM,50.0,46.4,87,29.71,7.0,South,10.4,-,N/A,,Overcast,180,2013-01-11 12:22:00
6:42 AM,50.0,46.4,87,29.71,8.0,South,16.1,20.7,N/A,,Overcast,180,2013-01-11 12:42:00
6:53 AM,50.0,46.9,89,29.73,10.0,South,13.8,21.9,N/A,,Overcast,180,2013-01-11 12:53:00
7:53 AM,50.0,46.0,86,29.70,10.0,South,16.1,21.9,N/A,,Overcast,180,2013-01-11 13:53:00
8:53 AM,48.9,45.0,86,29.70,10.0,South,15.0,20.7,N/A,,Mostly Cloudy,180,2013-01-11 14:53:00
9:05 AM,48.2,44.6,87,29.69,10.0,South,13.8,24.2,N/A,,Scattered Clouds,180,2013-01-11 15:05:00
9:53 AM,50.0,44.1,80,29.70,10.0,South,20.7,25.3,N/A,,Clear,190,2013-01-11 15:53:00
10:53 AM,52.0,44.1,74,29.67,10.0,South,15.0,23.0,N/A,,Clear,190,2013-01-11 16:53:00
11:53 AM,57.0,45.0,64,29.64,10.0,SSW,20.7,34.5,N/A,,Clear,200,2013-01-11 17:53:00
12:53 PM,55.9,44.1,64,29.62,10.0,SSW,17.3,28.8,N/A,,Clear,200,2013-01-11 18:53:00
2:53 PM,59.0,44.1,58,29.60,10.0,South,18.4,26.5,N/A,,Clear,180,2013-01-11 20:53:00
3:53 PM,59.0,44.1,58,29.60,10.0,South,18.4,27.6,N/A,,Clear,180,2013-01-11 21:53:00
4:53 PM,59.0,44.1,58,29.59,10.0,South,19.6,29.9,N/A,,Clear,180,2013-01-11 22:53:00
5:53 PM,59.0,43.0,55,29.61,10.0,South,16.1,25.3,N/A,,Clear,190,2013-01-11 23:53:00
6:53 PM,59.0,43.0,55,29.62,10.0,South,15.0,23.0,N/A,,Clear,190,2013-01-12 00:53:00
7:53 PM,59.0,43.0,55,29.63,10.0,South,13.8,-,N/A,,Clear,180,2013-01-12 01:53:00
8:53 PM,57.9,43.0,58,29.65,10.0,South,13.8,20.7,N/A,,Clear,180,2013-01-12 02:53:00
9:53 PM,57.9,43.0,58,29.66,10.0,SSW,11.5,24.2,N/A,,Clear,200,2013-01-12 03:53:00
10:53 PM,59.0,44.1,58,29.69,10.0,SSW,12.7,23.0,N/A,,Overcast,210,2013-01-12 04:53:00
11:53 PM,59.0,41.0,51,29.71,10.0,SW,15.0,29.9,N/A,,Mostly Cloudy,230,2013-01-12 05:53:00